Atmospheric History
02/08/2018 18:17  to  2/9/2018 18:17
Change End Date:
To complete the export process:
1) Select all of the data below
2) Copy the data to the clipboard
3) Open a word processor such as Notepad
4) Paste the data into the word processor
5) Save the file

Date/Time (MDT), AirTemp, RH, Dewpoint ,AvgWindSpeed, GustWindSpeed, WindDirection, PrecipType, PrecipIntensity, PrecipAccumulation, PrecipRate
02/09/2018 18:15, 18, 56, 5 ,0, 1, S, None, None, ,  
02/09/2018 18:14, 18, 56, 5 ,0, 1, E, None, None, ,  
02/09/2018 18:04, 18, 55, 5 ,0, 1, NE, None, None, ,  
02/09/2018 18:00, 18, 54, 4 ,0, 1, NE, None, None, ,  
02/09/2018 17:54, 18, 54, 4 ,0, 2, SE, None, None, ,  
02/09/2018 17:45, 19, 53, 4 ,1, 3, SE, None, None, ,  
02/09/2018 17:44, 19, 53, 5 ,2, 3, SE, None, None, ,  
02/09/2018 17:34, 19, 53, 5 ,2, 2, SE, None, None, ,  
02/09/2018 17:30, 20, 53, 5 ,2, 2, SE, None, None, ,  
02/09/2018 17:24, 20, 51, 5 ,1, 3, SE, None, None, ,  
02/09/2018 17:15, 21, 50, 5 ,2, 3, SE, None, None, ,  
02/09/2018 17:14, 21, 50, 5 ,2, 3, SE, None, None, ,  
02/09/2018 17:04, 22, 49, 6 ,2, 3, SE, None, None, ,  
02/09/2018 17:00, 22, 49, 6 ,2, 3, SE, None, None, ,  
02/09/2018 16:54, 23, 49, 7 ,2, 4, E, None, None, ,  
02/09/2018 16:45, 22, 49, 6 ,2, 4, E, None, None, ,  
02/09/2018 16:44, 22, 49, 6 ,2, 4, E, None, None, ,  
02/09/2018 16:34, 21, 47, 5 ,3, 4, E, None, None, ,  
02/09/2018 16:30, 22, 47, 5 ,2, 4, E, None, None, ,  
02/09/2018 16:24, 22, 47, 5 ,3, 4, E, None, None, ,  
02/09/2018 16:15, 22, 45, 4 ,2, 2, N, None, None, ,  
02/09/2018 16:14, 22, 45, 4 ,2, 2, N, None, None, ,  
02/09/2018 16:04, 22, 44, 4 ,1, 4, N, None, None, ,  
02/09/2018 16:00, 22, 44, 3 ,2, 4, NW, None, None, ,  
02/09/2018 15:53, 22, 43, 3 ,2, 6, NW, None, None, ,  
02/09/2018 15:45, 22, 43, 3 ,4, 5, NW, None, None, ,  
02/09/2018 15:43, 22, 43, 3 ,2, 6, NW, None, None, ,  
02/09/2018 15:33, 24, 42, 5 ,3, 6, NW, None, None, ,  
02/09/2018 15:30, 25, 43, 6 ,3, 5, W, None, None, ,  
02/09/2018 15:23, 24, 43, 5 ,2, 6, W, None, None, ,  
02/09/2018 15:15, 25, 44, 6 ,3, 6, W, None, None, ,  
02/09/2018 15:13, 25, 45, 7 ,3, 6, W, None, None, ,  
02/09/2018 15:03, 22, 45, 5 ,2, 6, NW, None, None, ,  
02/09/2018 15:00, 21, 45, 4 ,4, 6, NW, None, None, ,  
02/09/2018 14:53, 23, 44, 5 ,2, 5, NW, None, None, ,  
02/09/2018 14:45, 24, 42, 4 ,4, 7, N, None, None, ,  
02/09/2018 14:43, 24, 42, 5 ,4, 7, NW, None, None, ,  
02/09/2018 14:33, 25, 41, 5 ,3, 6, N, None, None, ,  
02/09/2018 14:30, 26, 40, 5 ,4, 6, NW, None, None, ,  
02/09/2018 14:23, 26, 40, 5 ,3, 6, W, None, None, ,  
02/09/2018 14:15, 26, 40, 6 ,3, 6, W, None, None, ,  
02/09/2018 14:13, 27, 40, 6 ,3, 5, W, None, None, ,  
02/09/2018 14:03, 28, 42, 8 ,1, 2, SW, None, None, ,  
02/09/2018 14:00, 28, 42, 8 ,1, 3, SW, None, None, ,  
02/09/2018 13:53, 28, 43, 9 ,2, 3, SW, None, None, ,  
02/09/2018 13:45, 29, 44, 10 ,1, 4, SE, None, None, ,  
02/09/2018 13:43, 29, 45, 10 ,1, 4, E, None, None, ,  
02/09/2018 13:33, 27, 45, 9 ,2, 4, E, None, None, ,  
02/09/2018 13:30, 27, 45, 9 ,2, 4, SE, None, None, ,  
02/09/2018 13:23, 26, 45, 8 ,2, 4, E, None, None, ,  
02/09/2018 13:15, 26, 46, 8 ,2, 4, E, None, None, ,  
02/09/2018 13:13, 26, 45, 8 ,1, 4, E, None, None, ,  
02/09/2018 13:03, 26, 46, 9 ,2, 3, SE, None, None, ,  
02/09/2018 13:00, 26, 47, 8 ,2, 3, SE, None, None, ,  
02/09/2018 12:53, 27, 48, 10 ,2, 3, SE, None, None, ,  
02/09/2018 12:45, 25, 50, 9 ,0, 2, SE, None, None, ,  
02/09/2018 12:42, 25, 50, 9 ,0, 2, S, None, None, ,  
02/09/2018 12:32, 24, 51, 8 ,1, 4, E, None, None, ,  
02/09/2018 12:30, 24, 51, 9 ,2, 4, E, None, None, ,  
02/09/2018 12:22, 22, 51, 7 ,1, 3, S, None, None, ,  
02/09/2018 12:15, 22, 52, 7 ,2, 3, SW, None, None, ,  
02/09/2018 12:12, 23, 52, 8 ,1, 2, SW, None, None, ,  
02/09/2018 12:02, 24, 54, 10 ,0, 3, E, None, None, ,  
02/09/2018 12:00, 24, 55, 10 ,1, 3, E, None, None, ,  
02/09/2018 11:52, 22, 57, 10 ,1, 3, SE, None, None, ,  
02/09/2018 11:45, 20, 57, 8 ,0, 2, SW, None, None, ,  
02/09/2018 11:42, 21, 58, 8 ,1, 3, SW, None, None, ,  
02/09/2018 11:32, 20, 59, 9 ,1, 4, S, None, None, ,  
02/09/2018 11:30, 20, 60, 9 ,2, 4, S, None, None, ,  
02/09/2018 11:22, 20, 62, 10 ,1, 2, SE, None, None, ,  
02/09/2018 11:15, 20, 63, 10 ,0, 2, SW, None, None, ,  
02/09/2018 11:12, 19, 64, 9 ,1, 3, SW, None, None, ,  
02/09/2018 11:02, 18, 65, 9 ,3, 4, S, None, None, ,  
02/09/2018 11:00, 19, 66, 9 ,3, 4, S, None, None, ,  
02/09/2018 10:52, 17, 67, 8 ,1, 3, N, None, None, ,  
02/09/2018 10:45, 17, 68, 8 ,1, 4, N, None, None, ,  
02/09/2018 10:42, 17, 68, 8 ,1, 4, E, None, None, ,  
02/09/2018 10:32, 16, 69, 8 ,2, 4, NE, None, None, ,  
02/09/2018 10:30, 16, 69, 8 ,2, 4, E, None, None, ,  
02/09/2018 10:22, 15, 69, 7 ,2, 4, E, None, None, ,  
02/09/2018 10:12, 14, 70, 6 ,1, 4, NE, None, None, ,  
02/09/2018 10:02, 14, 70, 6 ,1, 4, W, None, None, ,  
02/09/2018 10:00, 14, 70, 7 ,2, 4, N, None, None, ,  
02/09/2018 09:52, 15, 71, 7 ,1, 3, N, None, None, ,  
02/09/2018 09:45, 14, 71, 7 ,2, 3, NW, None, None, ,  
02/09/2018 09:42, 14, 71, 7 ,1, 3, NW, None, None, ,  
02/09/2018 09:31, 14, 71, 6 ,3, 4, N, None, None, ,  
02/09/2018 09:30, 14, 71, 6 ,3, 4, N, None, None, ,  
02/09/2018 09:21, 14, 71, 6 ,3, 4, N, None, None, ,  
02/09/2018 09:15, 13, 71, 6 ,3, 4, N, None, None, ,  
02/09/2018 09:11, 13, 71, 6 ,3, 4, N, None, None, ,  
02/09/2018 09:01, 13, 71, 5 ,2, 5, NW, None, None, ,  
02/09/2018 09:00, 12, 71, 5 ,2, 5, N, None, None, ,  
02/09/2018 08:51, 11, 72, 4 ,4, 6, NW, None, None, ,  
02/09/2018 08:45, 11, 72, 4 ,3, 4, NW, None, None, ,  
02/09/2018 08:41, 11, 72, 4 ,2, 4, W, None, None, ,  
02/09/2018 08:31, 11, 72, 4 ,3, 6, N, None, None, ,  
02/09/2018 08:30, 11, 72, 4 ,3, 6, N, None, None, ,  
02/09/2018 08:21, 10, 71, 3 ,3, 6, N, None, None, ,  
02/09/2018 08:15, 10, 71, 3 ,2, 6, N, None, None, ,  
02/09/2018 08:11, 10, 71, 3 ,2, 6, N, None, None, ,  
02/09/2018 08:01, 11, 71, 3 ,2, 6, N, None, None, ,  
02/09/2018 08:00, 11, 71, 3 ,3, 6, NW, None, None, ,  
02/09/2018 07:51, 11, 70, 3 ,4, 7, NW, None, None, ,  
02/09/2018 07:45, 10, 70, 3 ,3, 7, NW, None, None, ,  
02/09/2018 07:41, 11, 70, 3 ,6, 7, NW, None, None, ,  
02/09/2018 07:31, 11, 69, 3 ,4, 7, N, None, None, ,  
02/09/2018 07:30, 11, 69, 3 ,4, 7, N, None, None, ,  
02/09/2018 07:21, 11, 69, 3 ,5, 11, NW, Yes, , ,  
02/09/2018 07:15, 11, 69, 3 ,7, 11, NW, None, None, ,  
02/09/2018 07:11, 11, 69, 3 ,6, 12, NW, None, None, ,  
02/09/2018 07:01, 11, 69, 3 ,7, 12, NW, None, None, ,  
02/09/2018 07:00, 11, 69, 3 ,7, 12, NW, None, None, ,  
02/09/2018 06:51, 11, 69, 4 ,7, 12, NW, None, None, ,  
02/09/2018 06:45, 11, 69, 4 ,9, 13, NW, None, None, ,  
02/09/2018 06:41, 11, 69, 3 ,8, 13, NW, None, None, ,  
02/09/2018 06:30, 11, 70, 4 ,9, 14, NW, None, None, ,  
02/09/2018 06:30, 11, 70, 4 ,9, 14, NW, None, None, ,  
02/09/2018 06:20, 12, 71, 4 ,10, 14, NW, None, None, ,  
02/09/2018 06:15, 12, 71, 4 ,7, 9, NW, None, None, ,  
02/09/2018 06:10, 12, 71, 4 ,5, 12, NW, None, None, ,  
02/09/2018 06:00, 12, 71, 5 ,7, 11, NW, None, None, ,  
02/09/2018 06:00, 12, 71, 5 ,7, 11, NW, None, None, ,  
02/09/2018 05:50, 12, 72, 5 ,5, 11, NW, None, None, ,  
02/09/2018 05:45, 12, 72, 5 ,7, 13, NW, None, None, ,  
02/09/2018 05:40, 12, 72, 5 ,7, 11, NW, None, None, ,  
02/09/2018 05:30, 12, 73, 5 ,6, 11, NW, None, None, ,  
02/09/2018 05:30, 12, 73, 5 ,6, 11, NW, None, None, ,  
02/09/2018 05:20, 13, 74, 6 ,6, 14, NW, None, None, ,  
02/09/2018 05:15, 12, 75, 6 ,9, 14, NW, None, None, ,  
02/09/2018 05:10, 12, 76, 6 ,7, 11, NW, None, None, ,  
02/09/2018 05:00, 13, 78, 7 ,7, 9, NW, None, None, ,  
02/09/2018 05:00, 13, 78, 7 ,6, 9, NW, None, None, ,  
02/09/2018 04:50, 13, 80, 8 ,6, 10, NW, None, None, ,  
02/09/2018 04:45, 13, 81, 8 ,6, 9, NW, Yes, , ,  
02/09/2018 04:40, 13, 81, 8 ,4, 9, NW, None, None, ,  
02/09/2018 04:30, 13, 81, 8 ,6, 10, NW, Yes, , ,  
02/09/2018 04:30, 13, 81, 8 ,6, 10, NW, Yes, , ,  
02/09/2018 04:20, 13, 81, 8 ,4, 7, NW, Yes, , ,  
02/09/2018 04:15, 13, 81, 8 ,4, 9, NW, Yes, , ,  
02/09/2018 04:10, 13, 81, 8 ,6, 8, NW, Yes, , ,  
02/09/2018 04:00, 13, 81, 8 ,4, 7, NW, Yes, , ,  
02/09/2018 04:00, 13, 81, 8 ,4, 7, NW, Yes, , ,  
02/09/2018 03:50, 13, 81, 8 ,4, 10, NW, Yes, , ,  
02/09/2018 03:45, 13, 82, 8 ,6, 9, N, Yes, , ,  
02/09/2018 03:40, 13, 83, 9 ,4, 11, NW, Yes, , ,  
02/09/2018 03:30, 13, 84, 9 ,6, 10, NW, Yes, , ,  
02/09/2018 03:30, 13, 84, 9 ,6, 10, NW, Yes, , ,  
02/09/2018 03:19, 13, 85, 9 ,6, 14, NW, Yes, , ,  
02/09/2018 03:15, 13, 85, 9 ,7, 14, NW, Yes, , ,  
02/09/2018 03:09, 13, 85, 10 ,7, 11, N, Yes, , ,  
02/09/2018 03:00, 13, 85, 10 ,4, 8, NW, Yes, , ,  
02/09/2018 02:59, 13, 85, 10 ,3, 8, NW, Yes, , ,  
02/09/2018 02:49, 13, 85, 10 ,5, 9, N, Yes, , ,  
02/09/2018 02:45, 13, 85, 10 ,6, 9, NW, None, None, ,  
02/09/2018 02:39, 13, 85, 10 ,4, 10, N, Yes, , ,  
02/09/2018 02:30, 13, 85, 10 ,5, 9, NW, Yes, , ,  
02/09/2018 02:29, 13, 85, 10 ,6, 9, NW, Yes, , ,  
02/09/2018 02:19, 13, 85, 10 ,6, 9, NW, Yes, , ,  
02/09/2018 02:15, 13, 85, 10 ,5, 9, NW, Yes, , ,  
02/09/2018 02:09, 13, 85, 10 ,6, 9, NW, Yes, , ,  
02/09/2018 02:00, 13, 85, 9 ,6, 7, N, Yes, , ,  
02/09/2018 01:59, 13, 85, 9 ,5, 7, N, Yes, , ,  
02/09/2018 01:49, 13, 85, 9 ,7, 10, NW, Yes, , ,  
02/09/2018 01:45, 13, 85, 9 ,7, 11, NW, Yes, , ,  
02/09/2018 01:39, 13, 86, 10 ,6, 11, NW, Yes, , ,  
02/09/2018 01:30, 13, 86, 10 ,6, 11, N, Yes, , ,  
02/09/2018 01:29, 13, 86, 10 ,4, 10, NW, Yes, , ,  
02/09/2018 01:19, 13, 86, 10 ,5, 10, NW, Yes, , ,  
02/09/2018 01:15, 13, 87, 10 ,6, 7, NW, Yes, , ,  
02/09/2018 01:09, 13, 87, 10 ,5, 10, NW, Yes, , ,  
02/09/2018 01:00, 13, 87, 10 ,4, 10, N, Yes, , ,  
02/09/2018 00:59, 13, 87, 10 ,4, 7, N, Yes, , ,  
02/09/2018 00:49, 13, 87, 10 ,4, 9, NW, Yes, , ,  
02/09/2018 00:45, 13, 87, 10 ,4, 9, NW, Yes, , ,  
02/09/2018 00:39, 13, 86, 10 ,4, 11, N, Yes, , ,  
02/09/2018 00:30, 13, 86, 10 ,6, 12, N, Yes, , ,  
02/09/2018 00:29, 13, 86, 10 ,6, 12, N, Yes, , ,  
02/09/2018 00:19, 12, 86, 9 ,6, 14, NW, Yes, , ,  
02/09/2018 00:15, 12, 86, 9 ,6, 14, N, Yes, , ,  
02/09/2018 00:08, 12, 86, 9 ,9, 16, NW, None, None, ,  
02/09/2018 00:00, 13, 86, 9 ,7, 14, NW, Yes, , ,  
02/08/2018 23:58, 13, 86, 9 ,6, 13, N, Yes, , ,  
02/08/2018 23:48, 13, 85, 9 ,10, 19, N, None, None, ,  
02/08/2018 23:45, 13, 85, 10 ,7, 19, NW, Yes, , ,  
02/08/2018 23:38, 13, 85, 10 ,7, 13, N, None, None, ,  
02/08/2018 23:30, 13, 85, 10 ,6, 14, NW, Yes, , ,  
02/08/2018 23:28, 13, 85, 10 ,7, 15, N, None, None, ,  
02/08/2018 23:18, 13, 85, 10 ,10, 15, N, None, None, ,  
02/08/2018 23:15, 13, 85, 10 ,7, 15, N, None, None, ,  
02/08/2018 23:08, 13, 85, 10 ,10, 16, N, None, None, ,  
02/08/2018 23:00, 13, 86, 10 ,9, 16, N, None, None, ,  
02/08/2018 22:58, 13, 86, 10 ,7, 16, N, Yes, , ,  
02/08/2018 22:48, 13, 86, 10 ,9, 18, NW, None, None, ,  
02/08/2018 22:45, 13, 86, 10 ,8, 19, N, None, None, ,  
02/08/2018 22:38, 13, 86, 10 ,9, 19, N, None, None, ,  
02/08/2018 22:30, 13, 86, 10 ,10, 17, N, None, None, ,  
02/08/2018 22:28, 13, 87, 10 ,9, 17, N, None, None, ,  
02/08/2018 22:18, 13, 87, 10 ,11, 19, N, None, None, ,  
02/08/2018 22:15, 13, 88, 10 ,12, 19, N, None, None, ,  
02/08/2018 22:08, 13, 89, 11 ,12, 18, N, None, None, ,  
02/08/2018 22:00, 13, 89, 11 ,9, 22, N, None, None, ,  
02/08/2018 21:58, 13, 89, 11 ,11, 22, NW, None, None, ,  
02/08/2018 21:48, 14, 90, 11 ,11, 20, NW, None, None, ,  
02/08/2018 21:45, 14, 90, 12 ,9, 16, NW, None, None, ,  
02/08/2018 21:38, 14, 89, 12 ,7, 13, N, Yes, , ,  
02/08/2018 21:30, 14, 89, 12 ,7, 15, NW, Yes, , ,  
02/08/2018 21:28, 14, 88, 11 ,6, 15, N, Yes, , ,  
02/08/2018 21:18, 14, 87, 11 ,7, 14, N, Yes, , ,  
02/08/2018 21:15, 14, 86, 11 ,8, 15, N, Yes, , ,  
02/08/2018 21:07, 14, 86, 11 ,9, 15, NW, Yes, , ,  
02/08/2018 21:00, 14, 86, 11 ,6, 14, N, Yes, , ,  
02/08/2018 20:57, 15, 86, 11 ,9, 16, NW, Yes, , ,  
02/08/2018 20:47, 15, 85, 11 ,7, 15, NW, Yes, , ,  
02/08/2018 20:45, 15, 84, 11 ,8, 16, NW, Yes, , ,  
02/08/2018 20:37, 15, 83, 11 ,7, 13, N, Yes, , ,  
02/08/2018 20:30, 15, 82, 11 ,5, 11, NW, Yes, , ,  
02/08/2018 20:27, 15, 81, 10 ,5, 12, N, Yes, , ,  
02/08/2018 20:17, 15, 80, 10 ,6, 17, N, Yes, , ,  
02/08/2018 20:15, 15, 80, 10 ,9, 17, N, Yes, , ,  
02/08/2018 20:07, 16, 77, 10 ,7, 15, NW, Yes, , ,  
02/08/2018 20:00, 17, 75, 10 ,9, 14, NW, Yes, , ,  
02/08/2018 19:57, 17, 74, 10 ,9, 15, NW, Yes, , ,  
02/08/2018 19:47, 17, 71, 10 ,8, 16, N, Yes, , ,  
02/08/2018 19:45, 17, 70, 10 ,9, 16, NW, Yes, , ,  
02/08/2018 19:37, 18, 69, 9 ,8, 18, NW, None, None, ,  
02/08/2018 19:30, 18, 68, 9 ,9, 24, NW, None, None, ,  
02/08/2018 19:27, 18, 68, 9 ,12, 24, N, None, None, ,  
02/08/2018 19:17, 18, 68, 10 ,11, 18, N, None, None, ,  
02/08/2018 19:15, 18, 69, 10 ,10, 17, N, None, None, ,  
02/08/2018 19:07, 19, 70, 11 ,7, 17, N, None, None, ,  
02/08/2018 19:00, 19, 70, 11 ,10, 14, N, None, None, ,  
02/08/2018 18:57, 19, 71, 11 ,9, 16, N, None, None, ,  
02/08/2018 18:47, 19, 71, 11 ,8, 16, N, None, None, ,  
02/08/2018 18:45, 19, 71, 11 ,8, 16, N, None, None, ,  
02/08/2018 18:37, 18, 72, 11 ,6, 19, NW, None, None, ,  
02/08/2018 18:30, 18, 73, 11 ,9, 21, NW, None, None, ,  
02/08/2018 18:27, 18, 73, 11 ,11, 21, N, None, None, ,  
02/08/2018 18:17, 19, 75, 12 ,9, 17, N, None, None, ,  
Change End Date:

Copyright © 1998-2015 Vaisala, Inc.
All Rights Reserved
Send comments about the data to:
SCAN Web ® is a registered trademark of Vaisala, Inc.
SCAN Web Version 6.0